Location: Newark
(42.0333°N, 13.0667°E)
Time: 01:40:40
(UTC+00:00)

ISS - Pass Details

Date: 27 November 2019
Orbit: 411 x 421 km, 51.6° (Epoch: 14 December)

Event Time Altitude Azimuth Distance (km) Brightness Sun altitude
Rises 16:35:07 0° 257° (WSW) 2,348 2.2 -10.4°
Reaches altitude 10° 16:37:19 10° 267° (W) 1,489 0.4 -10.8°
Maximum altitude 16:40:25 35° 335° (NNW) 702 -2.6 -11.3°
Enters shadow 16:42:51 15° 37° (NE) 1,251 -1.8 -11.8°
